Overview Statistics Trail Chart Weather Telemetry Raw packets
 

This is the latest recevied weather packets stored in our database for station/object K0QED. If no packets are shown the sender has not sent any weather packets the latest 10 day(s).

<< 58 59 60 61 62 63 64 >>
Time Temp. Humidity Pressure Rain* Wind** Luminosity Snow
1788230971 13.89° C 91% 1027.9 hPa 0 mm - 0 W/m² -
1788230666 13.89° C 91% 1027.7 hPa 0 mm - 0 W/m² -
1788230365 13.89° C 89% 1027.9 hPa 0 mm - 0 W/m² -
1788230059 14.44° C 86% 1027.9 hPa 0 mm - 0 W/m² -
1788229755 15° C 83% 1028 hPa 1.27 mm - 0 W/m² -
1788229451 16.11° C 76% 1028.1 hPa 1.27 mm - 0 W/m² -
1788229145 16.67° C 72% 1028.2 hPa 0 mm - 0 W/m² -
1788228841 17.78° C 67% 1028 hPa 0 mm - 0 W/m² -
1788228536 18.33° C 62% 1027.5 hPa 0 mm - 0 W/m² -
1788228232 18.33° C 57% 1027.2 hPa 0 mm - 0 W/m² -
1788227930 18.33° C 56% 1027.1 hPa 0 mm - 0 W/m² -
1788227627 18.33° C 55% 1026.7 hPa 0 mm - 0 W/m² -
1788227326 18.89° C 56% 1026.4 hPa 0 mm - 0 W/m² -
1788227023 18.89° C 54% 1025.9 hPa 0 mm - 0 W/m² -
1788226718 18.89° C 54% 1025.9 hPa 0 mm - 0 W/m² -
1788226413 18.89° C 53% 1025.7 hPa 0 mm - 0 W/m² -
1788226109 19.44° C 52% 1025.7 hPa 0 mm - 0 W/m² -
1788225804 19.44° C 52% 1026 hPa 0 mm - 1 W/m² -
1788225499 19.44° C 52% 1025.7 hPa 0 mm - 3 W/m² -
1788225194 19.44° C 52% 1025.7 hPa 0 mm - 4 W/m² -
1788224888 20° C 52% 1025.6 hPa 0 mm - 8 W/m² -
1788224582 20° C 50% 1025.7 hPa 0 mm - 14 W/m² -
1788224281 20° C 50% 1025.7 hPa 0 mm - 20 W/m² -
1788223982 20.56° C 51% 1025.7 hPa 0 mm - 23 W/m² -
1788223676 20.56° C 50% 1025.9 hPa 0 mm - 25 W/m² -

* Rain latest hour (hover to see other rain measurements)
** Current wind speed in m/s (hover to see current wind gust speed)